Aéroport int. de Victoria, Colombie-Britannique

Conditions des dernières 24 heures

Ce tableau est un sommaire des conditions météo couvrant les dernières 24 heures. Ce sommaire inclut les paramètres suivants: température, humidité, point de rosée, direction et vitesse du vent, pression barométrique, facteur de refroidissement éolien ou indice humidex.
Date / Heure
(HAP)
Conditions Temp (°F) Humidite (%) Point de rose (°F) Vent (mph) Pression (pouces) Visibilité (miles)
24 juillet 2014
8:00 Généralement nuageux 57 91 54 SO 5 30.1 30
7:00 Pluie faible 56 95 54 SE 5 30.1 12
6:00 Pluie faible 55   98 54 ESE 5 30.0 6
5:00 Pluie faible 55   99 55 SSE 3 30.0 6
4:00 Pluie faible 55   98 54 S 2 30.0 10
3:00 Pluie faible 55   98 55 calme 30.0 12
2:00 Généralement nuageux 55   97 54 NNE 3 30.0 20
1:00 Nuageux 55   96 54 NE 3 30.0 20
0:00 Nuageux 55   92 53 NE 3 30.0 30
23 juillet 2014
23:00 Nuageux 56 90 53 SE 7 30.0 30
22:00 Nuageux 57 93 55 SSE 12 30.0 30
21:00 Généralement nuageux 55   94 54 SE 6 30.0 30
20:00 Généralement nuageux 55   95 53 SE 11 30.0 20
19:00 Généralement nuageux 55   94 54 ESE 8 30.0 20
18:00 Généralement nuageux 58 90 55 SSE 3 30.0 20
17:00 Pluie faible 58 89 55 S 3 30.0 12
16:00 Pluie faible 57 97 56 SE 7 30.0 5
15:00 Pluie faible 59 96 57 SE 7 30.0 5
14:00 Brume 61   91 58 ESE 7 30.0 5
13:00 Brume 61   92 59 SSE 5 30.0 5
12:00 Pluie faible 61   91 58 SSE 2 30.0 5
11:00 Généralement nuageux 61   87 57 SSE 2 30.0 15
10:00 Pluie faible 60 85 56 OSO 2 30.0 12
9:00 Généralement nuageux 59 85 54 OSO 5 30.0 30
8:00 Pluie faible 58 82 53 O 4 30.0 30
N.D.
non disponible
 ↑ 
température la plus haute
 ↓ 
température la plus basse

Si vous désirez plus de données historiques sur les conditions météo, s.v.p. visitez Données climatologiques en ligne.